Selinsgrove, PA

7:23 AM EDT on April 23, 2018 (GMT -0400)
Penn Valley

Weather History for KSEG - March, 2013

Change the Weather History Date:

Friday, March 22, 2013

  Actual Average (KIPT) Record (KIPT)
Temperature  
Mean Temperature 32 °F -  
Max Temperature 39 °F 47 °F 82 °F (1938)
Min Temperature 24 °F 28 °F 8 °F (1965)
Degree Days  
Heating Degree Days 34    
Moisture  
Dew Point 20 °F    
Average Humidity 67    
Maximum Humidity 88    
Minimum Humidity 50    
Precipitation  
Precipitation 0.00 in - - ()
Sea Level Pressure  
Sea Level Pressure 29.88 in    
Wind  
Wind Speed 6 mph (West)    
Max Wind Speed 17 mph    
Max Gust Speed 23 mph    
Visibility 8 miles    
Events Snow    
Averages and records for this station are not official NWS values.
T = Trace of Precipitation, MM = Missing Value Source: NWS Daily Summary

Daily Weather History Graph

Daily Weather History Graph

Search for Another Location

Airport or City:

Astronomy

Mar. 22, 2013 Rise Set
Actual Time 7:07 AM EDT 7:21 PM EDT
Civil Twilight 6:39 AM EDT 7:49 PM EDT
Nautical Twilight 6:07 AM EDT 8:21 PM EDT
Astronomical Twilight 5:34 AM EDT 8:54 PM EDT
Moon 2:45 PM EDT (3/22) 4:07 AM EDT (3/22)
Length of Visible Light 13h 09m
Length of Day
12h 14m
Waxing Gibbous, 77% of the Moon is Illuminated
Mar 22
Waxing Gibbous
Mar 27
Full
Apr 3
Last Quarter
Apr 10
New
Apr 18
First Quarter

Hourly Weather History & Observations

Time (EDT) Temp. Windchill Dew Point Humidity Pressure Visibility Wind Dir Wind Speed Gust Speed Precip Events Conditions
12:53 AM 28.9 °F 23.9 °F 17.1 °F 61% 29.83 in 10.0 mi West 4.6 mph - N/A   Overcast
1:53 AM 28.9 °F 21.9 °F 18.0 °F 64% 29.83 in 10.0 mi West 6.9 mph - N/A   Overcast
2:51 AM 28.4 °F 21.2 °F 21.2 °F 74% 29.81 in 2.0 mi Variable 6.9 mph - 0.00 in Snow Light Snow
2:53 AM 28.0 °F 22.8 °F 21.9 °F 78% 29.83 in 2.0 mi West 4.6 mph - 0.00 in Snow Light Snow
3:04 AM 26.6 °F 22.6 °F 23.0 °F 86% 29.81 in 3.0 mi Variable 3.5 mph - 0.00 in Snow Light Snow
3:13 AM 26.6 °F 22.6 °F 23.0 °F 86% 29.81 in 2.5 mi WSW 3.5 mph - 0.00 in Snow Light Snow
3:31 AM 26.6 °F 21.2 °F 23.0 °F 86% 29.81 in 4.0 mi SW 4.6 mph - 0.00 in Snow Light Snow
3:44 AM 26.6 °F 22.6 °F 23.0 °F 86% 29.81 in 8.0 mi West 3.5 mph - 0.00 in   Scattered Clouds
3:53 AM 26.1 °F 21.9 °F 21.9 °F 84% 29.82 in 9.0 mi WSW 3.5 mph - 0.00 in   Clear
4:53 AM 25.0 °F - 21.9 °F 88% 29.82 in 8.0 mi Calm Calm - N/A   Mostly Cloudy
5:53 AM 25.0 °F - 19.9 °F 81% 29.83 in 7.0 mi Calm Calm - N/A   Mostly Cloudy
6:53 AM 24.1 °F - 19.9 °F 84% 29.85 in 10.0 mi Calm Calm - N/A   Mostly Cloudy
7:53 AM 28.0 °F - 21.9 °F 78% 29.87 in 10.0 mi Calm Calm - N/A   Overcast
8:53 AM 28.9 °F - 21.9 °F 75% 29.88 in 10.0 mi Calm Calm - N/A   Overcast
9:53 AM 32.0 °F 24.8 °F 19.9 °F 61% 29.88 in 10.0 mi WNW 8.1 mph - N/A   Overcast
10:53 AM 34.0 °F 25.0 °F 19.0 °F 54% 29.88 in 10.0 mi West 12.7 mph 17.3 mph N/A   Overcast
11:53 AM 33.1 °F 23.4 °F 21.0 °F 61% 29.88 in 8.0 mi WNW 13.8 mph 18.4 mph 0.00 in Snow Light Snow
12:53 PM 36.0 °F 28.5 °F 19.0 °F 50% 29.88 in 10.0 mi West 10.4 mph - 0.00 in   Overcast
1:53 PM 35.1 °F 24.8 °F 19.0 °F 52% 29.88 in 10.0 mi WNW 17.3 mph 23.0 mph 0.00 in   Unknown
2:53 PM 36.0 °F 28.5 °F 21.0 °F 55% 29.87 in 10.0 mi West 10.4 mph 17.3 mph N/A   Overcast
3:53 PM 39.0 °F 31.8 °F 21.9 °F 50% 29.88 in 10.0 mi West 11.5 mph 20.7 mph N/A   Overcast
4:53 PM 37.0 °F 28.9 °F 21.0 °F 52% 29.89 in 10.0 mi WNW 12.7 mph 20.7 mph N/A   Overcast
5:53 PM 36.0 °F 27.1 °F 19.9 °F 52% 29.92 in 10.0 mi WNW 13.8 mph 23.0 mph N/A   Overcast
6:53 PM 35.1 °F 27.4 °F 19.0 °F 52% 29.94 in 10.0 mi West 10.4 mph 20.7 mph N/A   Overcast
7:53 PM 33.1 °F 25.5 °F 19.0 °F 56% 29.96 in 10.0 mi West 9.2 mph - N/A   Mostly Cloudy
8:53 PM 34.0 °F 28.8 °F 19.9 °F 56% 29.98 in 10.0 mi WNW 5.8 mph - N/A   Overcast
9:53 PM 33.1 °F 26.9 °F 18.0 °F 54% 29.99 in 10.0 mi West 6.9 mph - N/A   Overcast
10:53 PM 32.0 °F 27.5 °F 18.0 °F 56% 29.99 in 10.0 mi West 4.6 mph - N/A   Mostly Cloudy
11:53 PM 32.0 °F 26.4 °F 19.0 °F 59% 29.99 in 10.0 mi Variable 5.8 mph - N/A   Overcast